Location: Bretagne
(43.8474°N, 0.4650°W)
Time: 08:37:17
(UTC+00:00)

Cosmos 1980 Rocket - Pass Details

Date: 15 January 2026
Orbit: 829 x 848 km, 71.0° (Epoch: 17 February)

Event Time Altitude Azimuth Distance (km) Brightness Sun altitude
Rises 19:21:56 0° 341° (NNW) 3,381 5.5 -26.9°
Reaches altitude 10° 19:24:40 10° 352° (N) 2,445 4.6 -27.4°
Enters shadow 19:25:58 16° 1° (N) 2,052 4.1 -27.6°
